Total_Precipitation_Accumulation
0.10 0.10 0.09 0.10 0.09 0.07 0.06 0.07 0.07 0.06 0.06 0.06 0.04 0.04 0.04 0.04 0.03 0.03 0.03 0.03 0.02 0.03 0.03 0.01 0.02 0.02 0.01 0.01 0.00 0.00 0.00 0.01 0.00 0.00 0.00 0.00 0.00 0.00 0.00 0.00 0.00 0.00 0.00 0.00 0.00 0.00 0.00 0.00 0.00 0.00 0.00 0.00 0.00 0.00 0.00 0.00 0.00 0.00 0.00 0.00 0.00 0.00 0.00 0.00 0.00 0.00 0.00 0.00 0.00 0.00 0.00 0.00 0.00 0.00 0.00 0.00 0.02 0.01 0.02 0.05 0.06 0.07 0.18 0.19 0.13 0.16 0.08 0.06
0.11 0.10 0.10 0.09 0.08 0.08 0.06 0.06 0.06 0.07 0.05 0.04 0.06 0.05 0.05 0.04 0.05 0.02 0.03 0.02 0.03 0.02 0.02 0.03 0.01 0.01 0.01 0.00 0.00 0.00 0.00 0.00 0.00 0.00 0.00 0.00 0.00 0.00 0.00 0.00 0.00 0.00 0.00 0.00 0.00 0.00 0.00 0.00 0.00 0.00 0.00 0.00 0.00 0.00 0.00 0.00 0.00 0.00 0.00 0.00 0.00 0.00 0.00 0.00 0.00 0.00 0.00 0.00 0.00 0.01 0.00 0.00 0.00 0.00 0.00 0.03 0.01 0.02 0.02 0.07 0.07 0.26 0.26 0.26 0.12 0.11 0.18 0.11
0.11 0.10 0.10 0.08 0.09 0.08 0.08 0.07 0.05 0.06 0.06 0.04 0.04 0.05 0.05 0.04 0.04 0.03 0.02 0.02 0.02 0.02 0.01 0.02 0.03 0.01 0.00 0.00 0.00 0.00 0.00 0.00 0.00 0.00 0.00 0.00 0.00 0.00 0.00 0.00 0.00 0.00 0.00 0.00 0.00 0.00 0.00 0.00 0.00 0.00 0.00 0.00 0.00 0.00 0.00 0.00 0.00 0.00 0.00 0.00 0.00 0.00 0.00 0.00 0.00 0.00 0.00 0.00 0.00 0.02 0.00 0.00 0.00 0.00 0.00 0.02 0.01 0.01 0.05 0.06 0.10 0.29 0.41 0.28 0.24 0.36 0.23 0.20
0.08 0.09 0.07 0.09 0.08 0.07 0.07 0.05 0.06 0.05 0.05 0.07 0.04 0.05 0.05 0.04 0.03 0.04 0.04 0.03 0.01 0.02 0.02 0.02 0.01 0.01 0.00 0.00 0.00 0.00 0.00 0.00 0.00 0.00 0.00 0.00 0.00 0.00 0.00 0.00 0.00 0.00 0.00 0.00 0.00 0.00 0.00 0.00 0.00 0.00 0.00 0.00 0.00 0.00 0.00 0.00 0.00 0.00 0.00 0.00 0.00 0.00 0.00 0.00 0.00 0.00 0.00 0.00 0.00 0.01 0.00 0.00 0.00 0.00 0.00 0.00 0.04 0.01 0.07 0.04 0.07 0.14 0.26 0.26 0.42 0.46 0.78 1.23
0.09 0.09 0.10 0.07 0.07 0.07 0.07 0.07 0.06 0.08 0.07 0.06 0.07 0.06 0.05 0.03 0.05 0.04 0.04 0.02 0.03 0.02 0.03 0.02 0.01 0.00 0.00 0.00 0.00 0.00 0.00 0.00 0.00 0.00 0.00 0.00 0.00 0.00 0.00 0.00 0.00 0.00 0.00 0.00 0.00 0.00 0.00 0.00 0.00 0.00 0.00 0.00 0.00 0.00 0.00 0.00 0.00 0.00 0.00 0.00 0.00 0.00 0.00 0.00 0.00 0.00 0.00 0.00 0.00 0.01 0.01 0.01 0.01 0.01 0.00 0.00 0.00 0.05 0.02 0.05 0.04 0.05 0.45 0.17 0.39 0.40 0.56 0.75
0.07 0.10 0.10 0.08 0.07 0.08 0.07 0.05 0.06 0.05 0.06 0.06 0.06 0.06 0.07 0.06 0.05 0.05 0.03 0.04 0.04 0.03 0.02 0.01 0.01 0.00 0.00 0.00 0.00 0.00 0.00 0.00 0.00 0.00 0.00 0.00 0.00 0.00 0.00 0.00 0.00 0.00 0.00 0.00 0.00 0.00 0.00 0.00 0.00 0.00 0.00 0.00 0.00 0.00 0.00 0.00 0.00 0.00 0.00 0.00 0.00 0.00 0.00 0.00 0.00 0.00 0.00 0.00 0.01 0.00 0.00 0.00 0.01 0.01 0.00 0.00 0.06 0.06 0.05 0.11 0.03 0.09 0.15 0.10 0.14 0.16 0.33 0.62
0.08 0.10 0.07 0.07 0.08 0.07 0.06 0.07 0.06 0.07 0.07 0.05 0.05 0.05 0.05 0.08 0.05 0.03 0.04 0.05 0.04 0.04 0.01 0.01 0.01 0.01 0.00 0.00 0.00 0.00 0.00 0.00 0.00 0.00 0.00 0.00 0.00 0.00 0.00 0.00 0.00 0.00 0.00 0.00 0.00 0.00 0.00 0.00 0.00 0.00 0.00 0.00 0.00 0.00 0.00 0.00 0.00 0.00 0.00 0.00 0.00 0.00 0.00 0.00 0.00 0.00 0.00 0.00 0.00 0.00 0.00 0.00 0.00 0.01 0.00 0.01 0.00 0.03 0.01 0.02 0.02 0.08 0.13 0.14 0.19 0.39 0.34 0.62
0.08 0.06 0.05 0.06 0.05 0.09 0.09 0.07 0.08 0.06 0.07 0.06 0.06 0.05 0.05 0.06 0.07 0.06 0.04 0.04 0.04 0.02 0.03 0.01 0.01 0.00 0.00 0.00 0.00 0.00 0.00 0.00 0.00 0.00 0.00 0.00 0.00 0.00 0.00 0.00 0.00 0.00 0.00 0.00 0.00 0.00 0.00 0.00 0.00 0.00 0.00 0.00 0.00 0.00 0.00 0.00 0.00 0.00 0.00 0.00 0.00 0.00 0.00 0.00 0.00 0.00 0.00 0.00 0.00 0.00 0.00 0.01 0.00 0.01 0.00 0.02 0.01 0.01 0.04 0.00 0.01 0.06 0.14 0.16 0.26 0.62 0.82 1.15
0.09 0.05 0.06 0.05 0.05 0.04 0.06 0.08 0.05 0.05 0.05 0.04 0.05 0.04 0.05 0.04 0.06 0.04 0.03 0.05 0.02 0.02 0.01 0.01 0.00 0.01 0.00 0.02 0.00 0.00 0.00 0.00 0.00 0.00 0.00 0.00 0.00 0.00 0.00 0.00 0.00 0.00 0.00 0.00 0.00 0.00 0.00 0.00 0.00 0.00 0.00 0.00 0.00 0.00 0.00 0.00 0.00 0.00 0.00 0.00 0.00 0.00 0.00 0.00 0.00 0.00 0.00 0.00 0.00 0.00 0.00 0.00 0.00 0.00 0.02 0.11 0.05 0.03 0.02 0.01 0.02 0.04 0.10 0.31 0.36 0.38 0.68 0.85
0.08 0.08 0.05 0.05 0.04 0.04 0.05 0.05 0.05 0.05 0.04 0.04 0.03 0.04 0.06 0.06 0.03 0.08 0.04 0.04 0.03 0.03 0.02 0.01 0.01 0.01 0.00 0.00 0.00 0.01 0.00 0.00 0.00 0.00 0.00 0.00 0.00 0.00 0.00 0.00 0.00 0.00 0.00 0.00 0.00 0.00 0.00 0.00 0.00 0.00 0.00 0.00 0.00 0.00 0.00 0.00 0.00 0.00 0.00 0.00 0.00 0.00 0.00 0.00 0.00 0.00 0.00 0.00 0.00 0.00 0.00 0.00 0.00 0.00 0.18 1.19 0.21 0.06 0.03 0.02 0.05 0.06 0.15 0.41 0.53 0.56 0.72 1.04
0.16 0.08 0.09 0.07 0.04 0.04 0.04 0.03 0.04 0.05 0.04 0.03 0.04 0.06 0.05 0.04 0.07 0.04 0.06 0.03 0.05 0.02 0.02 0.01 0.04 0.01 0.03 0.01 0.01 0.00 0.00 0.00 0.00 0.00 0.00 0.00 0.00 0.00 0.00 0.00 0.00 0.00 0.00 0.00 0.00 0.00 0.00 0.00 0.00 0.00 0.00 0.00 0.00 0.00 0.00 0.00 0.00 0.00 0.00 0.00 0.00 0.00 0.00 0.00 0.00 0.00 0.00 0.00 0.00 0.00 0.00 0.00 0.00 0.00 0.03 0.12 0.77 0.52 0.06 0.05 0.05 0.10 0.27 0.38 0.58 0.70 0.55 1.14
0.08 0.08 0.16 0.10 0.08 0.05 0.06 0.05 0.05 0.05 0.04 0.05 0.06 0.05 0.09 0.04 0.05 0.03 0.05 0.05 0.02 0.03 0.01 0.00 0.02 0.08 0.01 0.03 0.04 0.00 0.00 0.00 0.00 0.00 0.00 0.00 0.00 0.00 0.00 0.00 0.00 0.00 0.00 0.00 0.00 0.00 0.00 0.00 0.00 0.00 0.00 0.00 0.00 0.00 0.00 0.00 0.00 0.00 0.00 0.00 0.00 0.00 0.00 0.00 0.00 0.00 0.00 0.00 0.00 0.00 0.00 0.00 0.00 0.01 0.10 0.11 0.15 0.90 1.16 0.19 0.06 0.13 0.23 0.44 0.40 0.62 0.51 0.61
0.09 0.10 0.09 0.08 0.06 0.11 0.07 0.04 0.06 0.05 0.04 0.05 0.07 0.06 0.05 0.07 0.05 0.06 0.04 0.03 0.02 0.01 0.01 0.02 0.01 0.07 0.10 0.04 0.00 0.00 0.00 0.00 0.00 0.00 0.00 0.00 0.00 0.00 0.00 0.00 0.00 0.00 0.00 0.00 0.00 0.00 0.00 0.00 0.00 0.00 0.00 0.00 0.00 0.00 0.00 0.00 0.00 0.00 0.00 0.00 0.00 0.00 0.00 0.00 0.00 0.00 0.00 0.00 0.00 0.00 0.01 0.00 0.00 0.05 0.07 1.06 0.51 0.68 0.26 0.26 0.23 0.26 0.20 0.30 0.60 0.75 1.02 1.31
0.10 0.09 0.10 0.10 0.09 0.07 0.05 0.11 0.05 0.06 0.05 0.05 0.04 0.08 0.06 0.05 0.09 0.07 0.06 0.05 0.04 0.03 0.01 0.02 0.08 0.03 0.12 0.01 0.00 0.00 0.00 0.00 0.00 0.00 0.00 0.00 0.00 0.00 0.00 0.00 0.00 0.00 0.00 0.00 0.00 0.00 0.00 0.00 0.00 0.00 0.00 0.00 0.01 0.00 0.00 0.00 0.00 0.00 0.00 0.00 0.00 0.00 0.01 0.00 0.00 0.00 0.00 0.00 0.00 0.00 0.01 0.03 0.00 0.11 0.18 1.22 0.80 0.31 0.20 0.38 0.44 0.40 0.53 0.66 0.91 0.93 0.60 0.61
0.19 0.10 0.10 0.07 0.07 0.10 0.10 0.04 0.03 0.04 0.04 0.05 0.06 0.06 0.07 0.13 0.05 0.04 0.08 0.05 0.05 0.03 0.03 0.07 0.04 0.04 0.04 0.00 0.00 0.00 0.00 0.00 0.00 0.00 0.00 0.00 0.00 0.00 0.00 0.00 0.00 0.00 0.00 0.00 0.00 0.00 0.00 0.00 0.00 0.00 0.00 0.00 0.00 0.00 0.00 0.00 0.00 0.00 0.00 0.01 0.00 0.00 0.02 0.00 0.00 0.00 0.00 0.00 0.00 0.00 0.00 0.14 0.04 0.11 0.10 0.16 0.58 0.47 0.72 0.98 1.20 0.83 0.86 1.39 1.57 1.09 1.16 1.58
0.22 0.12 0.12 0.19 0.08 0.06 0.04 0.07 0.05 0.05 0.02 0.05 0.05 0.03 0.07 0.05 0.05 0.07 0.07 0.04 0.06 0.04 0.06 0.07 0.02 0.01 0.01 0.00 0.00 0.00 0.00 0.00 0.00 0.00 0.00 0.00 0.00 0.00 0.00 0.00 0.00 0.00 0.00 0.00 0.00 0.00 0.00 0.00 0.00 0.00 0.00 0.00 0.00 0.00 0.01 0.00 0.00 0.00 0.00 0.00 0.00 0.00 0.00 0.00 0.00 0.00 0.00 0.00 0.00 0.00 0.03 0.11 0.13 0.17 0.09 0.11 0.23 0.59 0.85 1.23 1.11 0.61 1.09 1.35 1.32 1.02 1.40 0.81
0.23 0.13 0.09 0.09 0.11 0.09 0.06 0.07 0.06 0.11 0.07 0.03 0.03 0.05 0.14 0.07 0.11 0.04 0.06 0.07 0.07 0.04 0.06 0.02 0.02 0.03 0.07 0.00 0.00 0.00 0.00 0.00 0.00 0.00 0.00 0.00 0.00 0.00 0.00 0.00 0.00 0.00 0.00 0.00 0.00 0.00 0.00 0.00 0.00 0.00 0.00 0.00 0.00 0.01 0.01 0.01 0.01 0.01 0.00 0.01 0.00 0.00 0.01 0.00 0.00 0.00 0.00 0.00 0.00 0.00 0.00 0.05 0.10 0.19 0.25 0.36 0.81 0.79 0.52 1.51 1.55 1.68 1.18 0.97 1.45 1.12 0.76 1.28
0.16 0.14 0.14 0.14 0.07 0.07 0.07 0.09 0.08 0.13 0.05 0.04 0.04 0.03 0.11 0.08 0.09 0.07 0.09 0.08 0.05 0.03 0.03 0.03 0.01 0.02 0.00 0.00 0.00 0.00 0.00 0.00 0.00 0.00 0.00 0.00 0.00 0.00 0.00 0.00 0.00 0.00 0.00 0.00 0.00 0.00 0.00 0.00 0.00 0.00 0.00 0.00 0.00 0.01 0.01 0.09 0.03 0.04 0.03 0.01 0.04 0.00 0.00 0.00 0.00 0.01 0.00 0.00 0.00 0.00 0.00 0.06 0.10 0.18 0.24 0.83 0.70 0.87 1.25 1.24 1.08 1.02 0.68 0.47 0.44 0.43 0.89 0.72
0.26 0.18 0.12 0.08 0.08 0.19 0.11 0.09 0.10 0.05 0.19 0.06 0.03 0.08 0.08 0.09 0.07 0.08 0.07 0.14 0.10 0.12 0.11 0.10 0.06 0.01 0.04 0.00 0.00 0.00 0.00 0.00 0.00 0.00 0.00 0.00 0.00 0.00 0.00 0.00 0.00 0.00 0.00 0.00 0.00 0.00 0.00 0.00 0.00 0.00 0.02 0.01 0.01 0.01 0.00 0.00 0.00 0.00 0.00 0.01 0.01 0.00 0.01 0.01 0.00 0.00 0.00 0.00 0.00 0.00 0.04 0.06 0.13 0.21 0.68 2.38 1.64 0.80 0.52 0.69 1.07 0.33 0.43 0.42 0.64 0.83 0.68 0.71
0.14 0.19 0.17 0.16 0.21 0.11 0.20 0.10 0.08 0.12 0.09 0.12 0.13 0.10 0.11 0.14 0.13 0.13 0.08 0.10 0.07 0.00 0.00 0.00 0.00 0.00 0.00 0.00 0.00 0.00 0.00 0.00 0.00 0.00 0.00 0.00 0.00 0.00 0.00 0.00 0.00 0.00 0.00 0.01 0.02 0.00 0.00 0.00 0.01 0.06 0.03 0.02 0.00 0.00 0.00 0.00 0.00 0.00 0.00 0.00 0.01 0.00 0.01 0.00 0.00 0.00 0.00 0.00 0.00 0.02 0.11 0.08 0.16 0.16 0.74 1.84 1.38 0.83 1.13 1.07 0.57 0.47 0.32 0.94 0.44 0.64 0.84 1.22
0.25 0.12 0.17 0.19 0.12 0.23 0.14 0.18 0.15 0.07 0.08 0.10 0.16 0.18 0.22 0.07 0.06 0.16 0.04 0.01 0.00 0.00 0.00 0.00 0.00 0.00 0.00 0.00 0.00 0.00 0.00 0.00 0.00 0.00 0.00 0.00 0.00 0.00 0.00 0.00 0.00 0.00 0.00 0.00 0.00 0.00 0.00 0.00 0.01 0.00 0.00 0.00 0.00 0.00 0.00 0.00 0.00 0.00 0.00 0.00 0.00 0.00 0.01 0.01 0.02 0.00 0.00 0.00 0.02 0.05 0.03 0.09 0.09 0.29 1.01 0.48 0.96 0.90 0.56 1.42 1.39 1.54 1.17 0.63 1.11 1.15 1.52 1.30
0.31 0.24 0.22 0.23 0.39 0.22 0.25 0.16 0.12 0.09 0.18 0.22 0.38 0.18 0.12 0.02 0.04 0.03 0.14 0.09 0.01 0.00 0.00 0.00 0.00 0.00 0.00 0.00 0.00 0.00 0.00 0.00 0.00 0.00 0.00 0.00 0.00 0.00 0.00 0.00 0.00 0.00 0.00 0.00 0.00 0.01 0.00 0.05 0.03 0.01 0.01 0.00 0.00 0.00 0.00 0.00 0.00 0.00 0.00 0.01 0.00 0.03 0.01 0.00 0.00 0.00 0.00 0.00 0.03 0.04 0.05 0.15 0.16 0.26 0.57 0.50 0.53 1.32 1.30 1.91 1.98 1.53 0.94 1.17 0.62 0.96 0.56 0.50
0.27 0.16 0.28 0.19 0.28 0.34 0.23 0.23 0.18 0.21 0.49 0.38 0.27 0.05 0.18 0.02 0.00 0.15 0.10 0.13 0.03 0.03 0.01 0.00 0.00 0.00 0.00 0.00 0.00 0.00 0.00 0.00 0.00 0.00 0.00 0.00 0.00 0.00 0.00 0.00 0.00 0.00 0.00 0.00 0.01 0.02 0.12 0.05 0.02 0.00 0.00 0.00 0.00 0.00 0.00 0.00 0.00 0.00 0.01 0.03 0.04 0.04 0.01 0.06 0.02 0.00 0.00 0.00 0.02 0.03 0.04 0.16 0.16 0.24 0.32 0.16 0.32 0.47 1.05 0.58 1.02 2.03 0.87 0.80 1.14 0.61 1.17 0.63
0.23 0.32 0.20 0.31 0.26 0.24 0.26 0.35 0.30 0.39 0.28 0.23 0.13 0.09 0.10 0.03 0.02 0.09 0.17 0.13 0.02 0.02 0.00 0.00 0.00 0.00 0.00 0.00 0.01 0.00 0.00 0.00 0.00 0.02 0.00 0.00 0.00 0.00 0.00 0.00 0.00 0.00 0.01 0.00 0.00 0.00 0.01 0.00 0.00 0.00 0.00 0.00 0.00 0.00 0.00 0.00 0.03 0.00 0.00 0.01 0.04 0.06 0.02 0.00 0.05 0.00 0.00 0.00 0.00 0.03 0.12 0.15 0.18 0.23 0.22 0.20 0.12 0.11 0.25 0.22 0.61 0.64 0.73 0.75 0.87 0.56 0.65 0.51
0.33 0.29 0.42 0.29 0.31 0.30 0.31 0.46 0.30 0.31 0.29 0.38 0.20 0.11 0.09 0.08 0.02 0.12 0.12 0.12 0.04 0.00 0.00 0.00 0.00 0.00 0.00 0.00 0.00 0.00 0.00 0.00 0.00 0.00 0.00 0.00 0.01 0.00 0.00 0.00 0.00 0.00 0.00 0.00 0.00 0.00 0.00 0.01 0.00 0.00 0.00 0.00 0.00 0.01 0.00 0.00 0.00 0.01 0.02 0.01 0.00 0.00 0.00 0.01 0.00 0.01 0.01 0.10 0.12 0.05 0.23 0.31 0.28 0.34 0.25 0.35 0.30 0.24 0.26 0.34 0.47 0.46 0.64 0.40 0.82 0.81 0.52 0.37
0.32 0.28 0.27 0.27 0.26 0.42 0.75 0.52 0.50 0.50 0.35 0.49 0.29 0.16 0.08 0.06 0.05 0.09 0.17 0.24 0.09 0.03 0.00 0.04 0.00 0.02 0.00 0.00 0.00 0.00 0.00 0.01 0.00 0.00 0.00 0.00 0.01 0.00 0.03 0.00 0.00 0.00 0.00 0.00 0.00 0.01 0.01 0.00 0.00 0.00 0.00 0.00 0.00 0.00 0.00 0.00 0.02 0.01 0.04 0.00 0.00 0.00 0.00 0.00 0.01 0.01 0.03 0.07 0.32 0.01 0.08 0.28 0.21 0.30 0.23 0.36 0.30 0.37 0.39 0.48 0.67 0.58 0.42 0.43 0.73 0.90 0.90 0.63
0.21 0.30 0.36 0.28 0.36 0.50 0.34 0.62 0.63 0.41 0.60 0.50 0.38 0.34 0.10 0.21 0.18 0.18 0.46 0.17 0.22 0.06 0.03 0.01 0.02 0.05 0.00 0.06 0.00 0.00 0.47 0.07 0.00 0.00 0.00 0.00 0.01 0.01 0.01 0.01 0.00 0.00 0.01 0.06 0.00 0.02 0.00 0.00 0.00 0.00 0.00 0.00 0.05 0.08 0.00 0.00 0.01 0.07 0.00 0.00 0.00 0.01 0.00 0.00 0.01 0.00 0.03 0.00 0.01 0.00 0.02 0.14 0.32 0.18 0.09 0.21 0.31 0.24 0.53 0.55 0.31 0.47 0.37 0.41 0.63 1.13 1.09 0.39
0.28 0.26 0.26 0.21 0.46 0.47 0.57 0.74 0.48 0.55 0.47 0.45 0.54 0.21 0.24 0.17 0.14 0.64 0.44 0.15 0.20 0.00 0.04 0.00 0.01 0.00 0.01 0.00 0.00 0.00 0.02 0.00 0.03 0.20 0.00 0.00 0.00 0.01 0.00 0.00 0.00 0.00 0.00 0.00 0.18 0.02 0.00 0.01 0.01 0.00 0.01 0.01 0.05 0.01 0.00 0.00 0.01 0.01 0.00 0.00 0.00 0.00 0.01 0.00 0.00 0.02 0.03 0.05 0.17 0.08 0.04 0.13 0.20 0.17 0.07 0.27 0.40 0.26 0.46 0.34 0.26 0.37 0.47 0.71 0.65 0.67 0.70 0.92
0.44 0.26 0.21 0.38 0.54 0.33 0.42 0.73 0.55 0.75 0.46 0.72 0.14 0.28 0.52 0.38 0.16 0.76 0.43 0.23 0.28 0.05 0.04 0.11 0.03 0.01 0.01 0.00 0.04 0.00 0.01 0.01 0.02 0.03 0.00 0.00 0.00 0.01 0.08 0.01 0.00 0.00 0.00 0.00 0.05 0.01 0.01 0.00 0.02 0.01 0.02 0.03 0.00 0.01 0.00 0.00 0.01 0.00 0.00 0.00 0.00 0.00 0.00 0.00 0.01 0.02 0.05 0.05 0.13 0.08 0.07 0.07 0.39 0.14 0.28 0.23 0.19 0.21 0.28 0.27 0.49 0.60 1.11 0.54 0.69 0.38 0.38 0.55
0.37 0.74 0.35 0.77 0.80 0.72 0.62 0.95 0.38 0.46 0.36 0.29 0.59 0.57 0.59 0.40 1.35 0.70 0.73 0.17 0.11 0.21 0.02 0.09 0.10 0.07 0.01 0.04 0.07 0.10 0.11 0.06 0.01 0.07 0.01 0.02 0.03 0.00 0.00 0.00 0.01 0.02 0.02 0.00 0.03 0.01 0.01 0.00 0.00 0.01 0.01 0.00 0.00 0.01 0.00 0.00 0.00 0.00 0.00 0.00 0.01 0.03 0.05 0.01 0.01 0.02 0.18 0.05 0.12 0.06 0.05 0.04 0.29 0.34 0.33 0.34 0.20 0.13 0.22 0.24 0.22 0.27 0.36 0.51 0.60 0.93 0.83 0.31
0.19 0.46 0.75 0.37 0.93 0.56 0.48 0.62 0.53 0.45 0.31 0.28 0.29 0.41 0.49 0.58 0.63 0.45 0.29 0.19 0.03 0.30 0.09 0.05 0.30 0.04 0.19 0.16 0.14 0.09 0.08 0.04 0.08 0.01 0.06 0.01 0.15 0.03 0.06 0.04 0.01 0.02 0.03 0.02 0.10 0.02 0.02 0.04 0.07 0.02 0.00 0.00 0.00 0.00 0.01 0.00 0.00 0.00 0.05 0.03 0.02 0.06 0.01 0.02 0.07 0.08 0.10 0.13 0.08 0.08 0.08 0.16 0.25 0.50 0.38 0.16 0.09 0.10 0.12 0.12 0.16 0.13 0.23 0.32 0.20 0.25 0.23 0.27
0.18 0.26 0.28 0.36 0.42 0.43 0.48 0.67 0.48 0.36 0.33 0.53 0.42 0.51 0.49 0.55 0.57 0.40 0.20 0.02 0.48 0.52 0.25 0.15 0.11 0.14 0.13 0.12 0.09 0.07 0.14 0.22 0.20 0.07 0.11 0.03 0.11 0.39 0.14 0.31 0.15 0.16 0.09 0.11 0.20 0.02 0.09 0.10 0.04 0.03 0.03 0.00 0.01 0.02 0.04 0.00 0.00 0.01 0.03 0.06 0.19 0.32 0.10 0.17 0.28 0.15 0.10 0.18 0.08 0.02 0.04 0.10 0.11 0.34 0.54 0.15 0.12 0.08 0.07 0.11 0.18 0.13 0.14 0.13 0.08 0.12 0.54 0.27
0.12 0.22 0.13 0.09 0.08 0.25 0.16 0.25 0.25 0.27 0.61 0.36 1.04 0.71 0.60 0.49 0.15 0.21 0.48 0.25 0.57 0.48 0.89 0.34 0.29 0.18 0.18 0.14 0.11 0.15 0.13 0.22 0.11 0.17 0.07 0.17 0.14 0.09 0.08 0.14 0.07 0.14 0.24 0.15 0.15 0.07 0.11 0.10 0.03 0.07 0.00 0.01 0.00 0.07 0.06 0.06 0.03 0.07 0.06 0.10 0.12 0.17 0.24 0.14 0.15 0.16 0.14 0.08 0.05 0.09 0.05 0.16 0.35 0.24 0.25 0.15 0.13 0.07 0.04 0.07 0.12 0.07 0.06 0.08 0.09 0.10 0.17 0.19
0.02 0.02 0.08 0.07 0.09 0.05 0.10 0.18 0.77 0.50 0.30 1.04 0.97 0.77 1.55 0.36 0.42 0.14 0.39 0.29 0.74 0.25 0.41 0.51 0.30 0.17 0.42 0.28 0.54 0.56 0.33 0.05 0.21 0.18 0.03 0.11 0.05 0.22 0.13 0.02 0.02 0.06 0.22 0.21 0.26 0.15 0.29 0.52 0.11 0.02 0.19 0.00 0.01 0.02 0.05 0.06 0.03 0.13 0.03 0.03 0.14 0.21 0.23 0.12 0.12 0.19 0.20 0.28 0.22 0.10 0.05 0.19 0.25 1.83 0.27 0.10 0.11 0.05 0.05 0.12 0.06 0.09 0.10 0.16 0.09 0.20 0.19 0.26
0.01 0.03 0.06 0.12 0.11 0.07 0.25 0.10 0.38 0.40 0.63 1.39 0.71 0.57 0.31 0.19 0.35 0.34 0.43 0.64 0.59 0.30 0.42 0.28 0.38 0.18 0.50 0.26 0.36 0.15 0.21 0.55 0.09 0.09 0.11 0.06 0.26 0.17 0.09 0.11 0.06 0.02 0.04 0.27 0.12 0.13 0.10 0.18 0.07 0.01 0.01 0.00 0.03 0.01 0.01 0.05 0.05 0.02 0.06 0.09 0.16 0.14 0.10 0.17 0.27 0.10 0.24 0.18 0.12 0.14 0.16 0.32 0.70 0.92 0.94 0.67 0.09 0.04 0.06 0.09 0.04 0.07 0.08 0.10 0.15 0.16 0.21 0.21
0.02 0.09 0.10 0.25 0.16 0.08 0.06 0.17 0.49 0.28 0.30 0.45 0.68 0.55 0.33 0.26 0.73 0.67 0.82 0.54 0.48 0.95 0.50 0.26 0.35 0.30 0.30 0.54 0.11 0.17 0.08 0.35 0.22 0.08 0.14 0.14 0.12 0.21 0.03 0.06 0.04 0.02 0.15 0.11 0.18 0.16 0.04 0.36 0.01 0.04 0.00 0.01 0.06 0.00 0.02 0.01 0.48 0.44 0.02 0.15 0.06 0.07 0.11 0.28 0.06 0.04 0.02 0.02 0.14 0.03 0.26 0.37 0.20 0.47 0.73 0.63 0.06 0.11 0.15 0.07 0.07 0.29 0.39 0.52 0.63 0.86 0.93 0.88
0.13 0.23 0.34 0.31 0.26 0.17 0.11 0.20 0.29 0.37 0.23 0.45 0.54 0.53 0.18 0.39 0.59 0.74 0.68 0.59 0.75 0.62 0.58 0.67 0.57 0.30 0.37 0.40 0.29 0.10 0.30 0.13 0.29 0.09 0.52 0.19 0.36 0.10 0.06 0.08 0.00 0.02 0.01 0.01 0.29 0.02 0.16 0.42 0.01 0.02 0.11 0.00 0.00 0.00 0.00 0.04 0.01 0.07 0.17 0.20 0.10 0.03 0.10 0.12 0.24 0.13 0.08 0.14 0.23 0.08 0.27 0.55 0.17 1.28 0.79 0.64 0.40 0.29 0.24 0.27 0.45 0.48 0.56 0.63 0.80 0.78 0.88 1.01
0.23 0.34 0.40 0.33 0.30 0.15 0.14 0.21 0.28 0.49 0.46 0.39 0.45 0.34 0.35 0.60 0.51 0.75 0.66 0.44 0.68 0.75 0.85 0.73 0.62 0.33 0.45 0.38 0.44 0.11 0.20 0.33 0.44 0.23 0.52 0.22 0.63 0.04 0.07 0.11 0.04 0.04 0.01 0.03 0.09 0.27 0.09 0.35 0.07 0.00 0.00 0.02 0.01 0.01 0.01 0.02 0.04 0.06 0.22 0.12 0.30 0.60 0.38 0.13 0.06 0.20 0.29 0.14 0.17 0.13 0.13 0.34 0.34 0.84 0.50 0.96 0.72 0.50 0.45 0.33 0.21 0.19 0.16 0.39 0.74 1.00 0.94 0.56
0.37 0.40 0.81 0.28 0.15 0.12 0.18 0.27 0.36 0.78 0.69 0.46 0.41 0.50 0.43 0.58 0.49 0.74 0.53 0.46 0.76 0.74 0.74 0.95 0.74 0.62 0.58 0.54 0.32 0.20 0.20 0.41 0.22 0.92 0.62 0.57 0.66 0.78 0.15 0.03 0.09 0.02 0.02 0.03 0.15 0.11 0.06 0.25 0.22 0.02 0.04 0.15 0.03 0.01 0.19 0.10 0.06 0.04 0.05 0.36 0.23 0.22 0.23 0.40 0.23 0.37 0.25 0.47 0.10 0.37 0.14 0.34 0.37 0.65 0.47 0.61 0.47 0.54 0.36 0.26 0.40 0.39 0.49 0.34 0.37 0.28 0.40 0.42
0.59 0.58 0.85 0.24 0.09 0.19 0.17 0.22 0.38 0.80 0.60 0.41 0.36 0.42 0.53 0.45 0.61 0.52 0.82 0.52 1.06 0.88 1.04 0.76 0.48 0.65 0.35 0.37 0.22 0.32 0.11 0.15 0.23 0.67 0.48 1.08 0.64 0.27 0.38 0.04 0.33 0.09 0.03 0.03 0.14 0.18 0.30 0.09 0.50 0.24 0.04 0.06 0.28 0.09 0.22 0.12 0.17 0.20 0.11 0.31 0.23 0.17 0.24 0.12 0.24 0.19 0.29 0.28 0.30 0.24 0.39 0.81 0.71 0.44 0.34 0.56 0.34 0.26 0.61 0.55 0.40 0.54 0.55 0.72 0.63 0.37 0.42 0.45
0.53 1.06 1.20 0.22 0.19 0.22 0.23 0.47 0.78 0.55 0.32 0.24 0.23 0.36 0.31 0.55 0.61 0.63 0.62 0.52 0.68 0.62 0.78 0.54 0.45 0.61 0.45 0.44 0.58 0.09 0.26 0.21 0.16 0.50 0.36 0.50 0.51 1.02 0.18 0.15 0.06 0.42 0.06 0.11 0.27 0.21 0.22 0.29 0.34 0.24 0.54 0.18 0.12 0.06 0.10 0.19 0.19 0.31 0.18 0.44 0.25 0.41 0.40 0.38 0.40 0.02 0.11 0.22 0.33 0.25 0.37 0.55 0.68 0.41 0.92 0.48 0.26 0.62 0.66 0.71 0.71 0.56 0.49 0.37 0.33 0.50 0.41 0.57
0.60 1.21 1.36 0.37 0.34 0.25 0.42 1.06 0.66 0.40 0.41 0.42 0.42 0.38 0.62 0.50 0.59 0.50 0.58 0.32 0.49 0.65 0.64 0.40 0.29 0.44 0.33 0.48 0.30 0.15 0.16 0.15 0.26 0.36 0.41 0.62 0.36 0.60 0.58 0.03 0.07 0.08 0.26 0.38 0.45 0.33 0.28 0.57 0.67 0.34 0.38 0.62 0.22 0.17 0.10 0.28 0.18 0.23 0.32 0.63 0.39 0.82 0.44 0.76 0.54 0.48 0.28 0.22 0.15 0.49 0.39 0.80 0.71 0.88 0.48 0.54 0.28 0.30 0.64 0.77 1.23 0.60 0.70 0.34 0.25 0.26 0.64 0.53
0.90 2.03 0.84 0.53 0.43 0.46 0.99 1.03 0.52 0.58 0.68 0.32 0.21 0.32 0.36 0.50 0.41 0.29 0.60 0.45 0.70 0.61 0.58 0.43 0.33 0.31 0.36 0.45 0.27 0.29 0.11 0.24 0.20 0.43 0.21 0.26 0.35 0.28 0.09 0.10 0.17 0.11 0.21 0.49 0.18 0.71 0.30 0.50 0.65 0.45 0.22 0.21 0.18 0.07 0.10 0.53 0.17 0.18 0.27 0.26 0.37 0.69 0.67 0.54 0.50 0.72 0.72 0.64 0.63 0.64 0.42 1.11 1.26 1.16 0.68 0.51 0.41 0.35 0.41 1.03 0.65 0.94 0.78 0.58 0.34 0.25 0.24 0.36
1.42 1.39 0.68 0.91 0.83 0.73 1.27 0.89 0.71 0.49 0.50 0.28 0.37 0.57 0.38 0.57 0.38 0.42 0.33 0.53 0.79 0.42 0.83 0.41 0.25 0.38 0.51 0.55 0.39 0.15 0.17 0.40 0.18 0.19 0.30 0.17 0.48 0.18 0.25 0.38 0.12 0.31 0.35 0.76 0.63 0.78 0.85 1.21 0.67 1.05 0.62 0.63 0.59 0.36 0.68 0.40 0.30 0.24 0.52 0.49 0.29 0.50 0.36 0.48 0.52 0.72 0.68 0.49 0.70 0.75 0.93 0.73 1.22 0.81 0.54 0.68 0.41 0.78 0.81 0.87 0.99 0.94 1.00 0.59 0.36 0.20 0.17 0.23
2.17 0.67 0.65 0.87 0.98 1.22 1.41 1.24 1.00 0.59 0.58 0.58 0.56 0.64 0.71 0.49 0.26 0.27 0.34 0.46 0.58 0.62 0.69 0.46 0.41 0.40 0.63 0.47 0.16 0.06 0.15 0.14 0.51 0.40 0.13 0.29 0.49 0.15 0.25 0.44 0.49 0.47 0.39 0.44 0.31 0.53 0.61 1.09 1.12 1.36 1.30 1.39 1.49 1.46 1.50 1.08 0.98 0.61 0.38 0.32 0.27 0.26 0.53 0.62 0.44 0.66 0.61 0.46 0.57 0.84 0.63 0.74 1.04 0.60 0.70 1.01 0.97 1.05 1.17 0.79 0.81 0.93 0.81 0.71 0.93 0.32 0.75 0.52
1.22 0.65 0.48 1.36 1.36 1.64 1.13 1.03 1.24 1.14 0.87 0.87 0.82 0.60 0.58 0.55 0.26 0.37 0.14 0.61 0.30 0.73 0.69 0.55 0.44 0.48 0.52 0.30 0.18 0.17 0.14 0.18 0.29 0.35 0.19 0.29 0.15 0.06 0.11 0.09 0.12 0.19 0.14 0.18 0.26 0.43 0.75 0.88 0.87 1.03 1.28 1.18 1.23 1.23 1.36 0.63 0.82 0.85 0.62 0.42 0.36 0.37 0.54 0.51 0.58 0.63 0.79 0.67 0.57 0.68 0.78 0.86 0.78 0.73 0.50 0.51 0.65 0.59 0.63 0.61 0.87 0.75 0.88 0.58 0.69 1.18 0.86 1.06
0.97 0.71 0.57 0.94 1.40 1.69 1.55 1.11 1.43 1.16 1.45 0.98 0.92 0.71 0.74 0.48 0.44 1.01 0.25 0.41 0.15 0.79 1.00 0.73 0.43 0.48 0.51 0.42 0.33 0.30 0.13 0.10 0.39 0.32 0.30 0.23 0.20 0.12 0.03 0.06 0.14 0.19 0.17 0.23 0.21 0.47 0.63 0.69 0.91 1.43 1.47 1.15 1.04 1.15 1.14 0.80 0.86 0.50 0.38 0.48 0.48 0.36 0.65 0.53 0.55 0.83 0.81 0.63 0.75 0.67 0.62 0.65 0.92 0.66 0.76 0.68 0.62 0.50 0.46 0.47 0.30 0.35 0.56 0.97 1.38 0.58 0.46 0.39
0.96 0.39 0.54 0.85 1.70 1.62 2.09 1.82 1.50 1.65 1.31 1.02 0.79 0.54 0.65 0.55 0.42 0.48 0.09 0.11 0.27 0.52 1.37 0.73 0.86 0.79 0.94 0.79 0.61 0.38 0.17 0.23 0.20 0.22 0.43 0.21 0.24 0.10 0.09 0.05 0.12 0.29 0.29 0.33 0.20 0.43 1.01 0.75 0.84 0.84 1.09 1.18 0.82 0.78 0.79 1.00 0.65 0.46 0.35 0.26 0.85 0.57 0.46 0.67 0.34 0.62 0.82 0.82 1.06 0.83 0.93 0.78 0.95 1.03 0.91 1.04 0.63 0.55 0.64 0.63 0.59 0.43 0.32 0.38 0.65 0.73 0.71 0.74
0.99 0.18 0.76 0.68 1.54 1.47 1.72 1.72 1.88 2.00 1.51 0.91 0.75 0.67 0.68 0.69 0.41 0.24 0.22 0.38 0.55 0.48 0.78 0.53 0.63 1.01 1.05 0.89 0.34 0.28 0.25 0.54 0.20 0.51 0.49 0.57 0.24 0.21 0.30 0.17 0.28 0.19 0.39 0.27 0.30 0.33 0.48 0.47 1.31 0.68 0.84 0.81 0.80 0.72 0.67 0.64 0.59 0.51 0.30 0.29 0.41 0.30 0.44 0.38 0.38 0.54 0.68 0.58 0.59 0.59 0.45 0.43 0.67 0.76 0.76 0.99 0.64 0.51 0.52 0.33 0.28 0.22 0.27 0.23 0.28 0.25 0.53 0.49
0.77 0.71 0.46 0.45 0.85 0.93 1.16 1.42 1.53 1.20 1.02 0.73 0.82 0.59 0.85 0.68 0.57 0.46 0.35 0.39 0.30 0.37 0.21 0.58 0.54 0.70 1.59 0.97 0.60 0.66 0.34 0.85 0.86 0.50 0.54 0.55 0.48 0.29 0.32 0.21 0.60 0.41 0.46 0.87 0.59 0.76 0.47 0.64 0.27 0.72 0.83 0.86 1.08 1.04 0.62 0.43 0.49 0.60 0.27 0.34 0.32 0.36 0.35 0.39 0.33 0.39 0.37 0.42 0.47 0.32 0.57 0.53 0.87 0.62 0.75 1.00 0.51 0.29 0.32 0.54 0.30 0.23 0.23 0.23 0.25 0.26 0.31 0.36
0.86 1.06 0.82 1.41 0.86 0.49 0.88 1.29 1.63 1.20 1.08 0.79 1.15 0.60 0.71 0.48 0.38 0.59 0.35 0.50 0.42 0.48 0.53 0.37 0.44 1.33 0.89 0.84 1.13 1.47 1.06 0.48 0.89 0.35 0.91 0.80 0.51 0.28 0.43 0.34 0.09 0.33 0.50 0.47 0.32 0.85 0.69 0.67 0.39 0.66 1.13 0.84 0.79 0.95 1.54 0.91 0.62 0.79 0.88 0.68 0.62 0.47 0.63 0.63 0.72 0.79 0.68 0.89 1.01 0.87 0.70 1.16 1.01 0.42 0.87 0.58 0.55 0.52 0.58 0.68 0.74 0.72 0.56 0.65 0.58 0.54 0.33 0.31
0.89 0.77 0.67 1.18 0.88 0.27 1.06 1.13 1.44 1.33 0.78 0.81 0.96 0.90 0.73 0.37 0.92 0.17 0.41 0.30 0.37 0.79 0.58 0.23 0.70 1.03 0.43 1.26 1.49 1.02 0.43 0.51 0.49 0.18 0.38 0.29 0.29 0.73 0.03 0.23 0.09 0.18 0.17 0.29 0.44 0.73 0.90 0.77 0.79 0.92 0.89 0.68 0.84 0.75 1.00 0.94 0.96 1.16 0.93 0.83 0.62 0.72 0.76 0.62 0.60 0.55 0.83 0.94 1.22 1.08 1.48 1.17 0.82 0.55 0.60 0.79 0.63 0.68 1.00 0.74 1.01 0.78 0.62 0.67 0.56 0.47 0.44 0.37